Regional Weather Roundup
Issued by NWS

Home | Current Version | Previous Version | Text Only | Print | Product List | Glossary Off
Versions: 1 2 3 4 5 6 7 8 9 10 11 12 13 14 15 16 17 18 19 20 21 22 23 24 25 26 27 28 29 30 31 32 33 34 35 36 37 38 39 40 41 42 43 44 45 46 47 48 49 50

000
ASUS45 KABQ 280801
RWRNM
NEW MEXICO REGIONAL WEATHER ROUNDUP
NATIONAL WEATHER SERVICE ALBUQUERQUE NM
100 AM MST TUE FEB 28 2017

NOTE: "FAIR" MEANS FEW OR NO CLOUDS BELOW 12,000 FEET AGL WITH NO
       SIGNIFICANT WEATHER OR OBSTRUCTIONS TO VISION.

      THIS PRODUCT IS RELEASED AS TWO VERSIONS.  ONE VERSION NEAR
      THE TOP OF THE HOUR CONTAINING PRELIMINARY DATA FROM ALBUQUERQUE
      AND OTHER STATIONS.  A FINAL VERSION WITH ADDITIONAL DATA IS
      ISSUED ABOUT 10 MINUTES AFTER THE HOUR.

NMZ501-503-504-510>518-280900-
NORTHWEST PLATEAU/NORTHCENTRAL MOUNTAINS

CITY           SKY/WX    TMP DP  RH WIND       PRES   REMARKS
FARMINGTON     LGT RAIN  38  36  92 S5        29.76F WCI  34
LOS ALAMOS     LGT RAIN  35  33  92 S12G30    29.86R WCI  26
SANTA FE       LGT RAIN  40  34  79 S8G30     29.85R WCI  34
TAOS             N/A     32  25  74 SE7       29.82F WCI  26
ANGEL FIRE     LGT SNOW  32  28  87 SW9G16    29.82F WCI  24

$$
NMZ402-403-502-505>509-280900-
WESTCENTRAL MOUNTAINS/SOUTHWEST MOUNTAINS

CITY           SKY/WX    TMP DP  RH WIND       PRES   REMARKS
GALLUP         LGT SNOW  33  32  96 SW10      29.82F FOG     WCI  25
GRANTS         LGT RAIN  37  34  88 S12       29.86F WCI  30
SILVER CITY    FAIR      49  33  53 W5        29.95F

$$
NMZ407-409-411-412-280900-
SOUTHERN DESERTS

CITY           SKY/WX    TMP DP  RH WIND       PRES   REMARKS
DEMING         FAIR      51  35  54 CALM      29.93S
LAS CRUCES     FAIR      49  32  51 SW6       29.94F
HOLLOMAN AFB   FAIR      56  29  34 SE12      29.94S
ALAMOGORDO     CLOUDY    57  32  38 S20       29.93R
T OR C         FAIR      51  35  54 SW8       29.88F

$$
NMZ519>523-280900-
CENTRAL VALLEYS/CENTRAL HIGHLANDS

CITY           SKY/WX    TMP DP  RH WIND       PRES   REMARKS
ALBUQUERQUE    CLOUDY    49  27  42 S15G26    29.84F
MORIARTY ARPT  CLOUDY    47  26  43 SW12G18   29.87F
CLINES CORNERS CLOUDY    42  23  46 SW21G32   29.87F
BELEN          CLOUDY    51  24  35 SW16G22   29.86F
SOCORRO        FAIR      53  30  41 SW20G40   29.84F

$$
NMZ524>526-539-540-280900-
SOUTHCENTRAL MOUNTAINS

CITY           SKY/WX    TMP DP  RH WIND       PRES   REMARKS
RUIDOSO        NOT AVBL

$$
NMZ527>531-280900-
NORTHEAST HIGHLANDS/NORTHEAST PLAINS

CITY           SKY/WX    TMP DP  RH WIND       PRES   REMARKS
LAS VEGAS      CLOUDY    42  25  50 SW35G45   29.83R
RATON          FAIR      34  22  61 SW12      29.74F WCI  25
CLAYTON        FAIR      42  22  44 SW3       29.74S

$$
NMZ532>537-280900-
EASTCENTRAL PLAINS

CITY           SKY/WX    TMP DP  RH WIND       PRES   REMARKS
TUCUMCARI      FAIR      48  19  31 W7        29.78F
CANNON AFB     MOCLDY    44  20  38 SW7       29.84S
CLOVIS AIRPORT FAIR      43  21  42 SW10      29.84F

$$
NMZ028-029-538-280900-
SOUTHEAST PLAINS

CITY           SKY/WX    TMP DP  RH WIND       PRES   REMARKS
ROSWELL        FAIR      53  22  29 S9          N/A
ARTESIA        FAIR      46  27  46 SW12      29.87S
CARLSBAD       FAIR      53  26  35 S7        29.88S
HOBBS          FAIR      54  23  30 SW7       29.90F


$$



USA.gov is the U.S. government's official web portal to all federal, state and local government web resources and services.